Madawaska, ME

10:32 PM EST on February 07, 2016 (GMT -0500)
Northern Aroostook Regional

Weather History for KFVE - February, 2014

Change the Weather History Date:

Tuesday, February 11, 2014

  Actual Average Record
Temperature  
Mean Temperature -1 °F 12 °F  
Max Temperature 4 °F 20 °F 37 °F (1998)
Min Temperature -6 °F 3 °F -11 °F (2002)
Degree Days  
Heating Degree Days 66    
Month to date heating degree days 621  
Since 1 July heating degree days 6055  
Cooling Degree Days 0    
Month to date cooling degree days 0  
Year to date cooling degree days 0  
Moisture  
Dew Point -9 °F    
Average Humidity 69    
Maximum Humidity 83    
Minimum Humidity 48    
Precipitation  
Precipitation T in 0.03 in 0.23 in (1998)
Month to date precipitation 0.25 0.23  
Year to date precipitation 2.25 1.99  
Sea Level Pressure  
Sea Level Pressure 30.13 in    
Wind  
Wind Speed 11 mph (WNW)    
Max Wind Speed 22 mph    
Max Gust Speed 25 mph    
Visibility 10 miles    
Events Snow    
T = Trace of Precipitation, MM = Missing Value Source: NWS Daily Summary

Daily Weather History Graph

Daily Weather History Graph

Search for Another Location

Airport or City:

Trip Planner

Search our weather history database for the weather conditions in past years. The results will help you decide how hot, cold, wet, or windy it might be!

Date:

Astronomy

Feb. 11, 2014 Rise Set
Actual Time 6:44 AM EST 4:50 PM EST
Civil Twilight 6:12 AM EST 5:22 PM EST
Nautical Twilight 5:36 AM EST 5:58 PM EST
Astronomical Twilight 5:01 AM EST 6:34 PM EST
Moon 2:02 PM EST (2/11) 4:25 AM EST (2/11)
Length of Visible Light 11h 09m
Length of Day
10h 06m
Waxing Gibbous, 90% of the Moon is Illuminated
Feb 11
Waxing Gibbous
Feb 14
Full
Feb 22
Last Quarter
Mar 1
New
Mar 8
First Quarter

Hourly Weather History & Observations

Time (EST) Temp. Windchill Dew Point Humidity Pressure Visibility Wind Dir Wind Speed Gust Speed Precip Events Conditions
12:53 AM -2.9 °F -17.7 °F -8.0 °F 79% 30.08 in 10.0 mi West 8.1 mph - N/A   Clear
1:53 AM -2.9 °F -18.8 °F -8.0 °F 79% 30.08 in 10.0 mi WNW 9.2 mph - N/A   Clear
2:53 AM -2.9 °F -16.5 °F -8.0 °F 79% 30.08 in 10.0 mi WNW 6.9 mph - N/A   Overcast
3:53 AM -2.9 °F -16.5 °F -8.0 °F 79% 30.09 in 10.0 mi NW 6.9 mph - N/A   Scattered Clouds
4:53 AM -6.0 °F -22.6 °F -9.9 °F 83% 30.10 in 10.0 mi West 9.2 mph - N/A   Mostly Cloudy
5:53 AM -6.0 °F -21.5 °F -9.9 °F 83% 30.11 in 10.0 mi WNW 8.1 mph - N/A   Overcast
6:53 AM -6.0 °F -21.5 °F -9.9 °F 83% 30.13 in 10.0 mi West 8.1 mph - N/A   Overcast
7:53 AM -6.0 °F -22.6 °F -9.9 °F 83% 30.14 in 8.0 mi West 9.2 mph - N/A   Overcast
8:00 AM -5.1 °F -20.4 °F -9.0 °F 83% 30.06 in 8.0 mi West 8.1 mph - N/A   Overcast
8:21 AM -5.1 °F -21.5 °F -9.9 °F 80% 30.06 in 8.0 mi WNW 9.2 mph - N/A   Overcast
8:31 AM -4.0 °F -19.0 °F -9.0 °F 79% 30.06 in 5.0 mi WNW 8.1 mph - 0.00 in Snow Light Snow
8:53 AM -4.0 °F -20.2 °F -9.0 °F 79% 30.14 in 9.0 mi WNW 9.2 mph - 0.00 in   Mostly Cloudy
9:21 AM -2.9 °F -17.7 °F -9.0 °F 75% 30.06 in 10.0 mi WNW 8.1 mph - N/A   Partly Cloudy
9:53 AM -0.0 °F -17.1 °F -9.9 °F 63% 30.14 in 10.0 mi NNW 11.5 mph - N/A   Partly Cloudy
10:15 AM -0.0 °F -19.4 °F -9.9 °F 63% 30.06 in 10.0 mi NNW 15.0 mph 20.7 mph N/A   Mostly Cloudy
10:50 AM 1.4 °F -16.9 °F -11.2 °F 56% 30.06 in 10.0 mi West 13.8 mph - N/A   Partly Cloudy
10:53 AM 1.0 °F -18.7 °F -11.9 °F 55% 30.14 in 10.0 mi WNW 16.1 mph - N/A   Partly Cloudy
11:53 AM 1.9 °F -17.5 °F -13.0 °F 50% 30.12 in 10.0 mi NNW 16.1 mph 21.9 mph N/A   Clear
12:53 PM 3.0 °F -13.3 °F -11.9 °F 50% 30.12 in 10.0 mi WNW 11.5 mph 21.9 mph N/A   Clear
1:53 PM 3.0 °F -13.3 °F -11.0 °F 52% 30.12 in 10.0 mi WNW 11.5 mph - N/A   Partly Cloudy
2:53 PM 3.9 °F -15.0 °F -11.9 °F 48% 30.12 in 10.0 mi WNW 16.1 mph - N/A   Partly Cloudy
3:53 PM 3.0 °F -17.3 °F -11.9 °F 50% 30.14 in 10.0 mi WNW 18.4 mph - N/A   Clear
4:53 PM 3.0 °F -12.5 °F -11.0 °F 52% 30.16 in 10.0 mi WNW 10.4 mph - N/A   Mostly Cloudy
5:53 PM 1.9 °F -13.8 °F -9.0 °F 60% 30.17 in 10.0 mi WNW 10.4 mph - N/A   Overcast
6:53 PM 1.0 °F -17.3 °F -7.1 °F 69% 30.18 in 10.0 mi WNW 13.8 mph - N/A   Overcast
7:53 PM 1.0 °F -16.6 °F -4.0 °F 79% 30.19 in 9.0 mi WNW 12.7 mph - N/A   Overcast
8:32 PM 1.0 °F -18.0 °F -6.0 °F 72% 30.12 in 10.0 mi NW 15.0 mph 23.0 mph N/A   Mostly Cloudy
8:53 PM -0.0 °F -17.1 °F -7.1 °F 72% 30.21 in 10.0 mi NW 11.5 mph - N/A   Partly Cloudy
9:53 PM -0.9 °F -16.4 °F -8.0 °F 72% 30.22 in 10.0 mi WNW 9.2 mph 20.7 mph N/A   Clear
10:53 PM -0.0 °F -15.3 °F -7.1 °F 72% 30.22 in 10.0 mi West 9.2 mph - N/A   Overcast
11:53 PM 1.0 °F -16.6 °F -7.1 °F 69% 30.24 in 10.0 mi WNW 12.7 mph - N/A   Overcast